ASTRA 1D 1 23331U 94070A 25137.14901044 -.00000102 00000-0 00000-0 0 9997 2 23331 11.7002 31.5370 0005214 93.7887 89.6409 0.98949403112026 ASTRA 1F 1 23842U 96021A 25137.29475698 -.00000170 00000-0 00000-0 0 9994 2 23842 4.4015 78.6230 0001360 19.6427 184.2690 0.99119058 48172 AMC-1 (GE-1) 1 24315U 96054A 25136.84905969 .00000061 00000-0 00000-0 0 9993 2 24315 8.1750 63.2630 0005638 236.0377 314.3643 0.99501650 42294 AMC-2 (GE-2) 1 24713U 97002A 25137.23933918 -.00000079 00000-0 00000-0 0 9998 2 24713 9.9989 48.6218 0003787 83.9097 100.7906 0.99467023103482 AMC-3 (GE-3) 1 24936U 97050A 25137.29215056 -.00000249 00000-0 00000-0 0 9999 2 24936 7.1754 68.5473 0003075 345.3215 214.5393 1.00270496 48469 NSS 5 (INTELSAT 803) 1 24957U 97053A 25137.54400351 -.00000230 00000-0 00000-0 0 9997 2 24957 9.6772 51.4150 0002529 229.6401 272.9310 0.99104930101032 ASTRA 1G 1 25071U 97076A 25137.61033075 -.00000256 00000-0 00000-0 0 9991 2 25071 8.5914 58.5913 0005862 130.2728 38.6954 0.99039632100455 NSS 806 (INTELSAT 806) 1 25239U 98014A 25137.09245756 -.00000149 00000-0 00000-0 0 9994 2 25239 6.1153 74.4826 0002242 32.0688 163.0175 0.99081313 43045 ASTRA 2A 1 25462U 98050A 25137.29241120 -.00000073 00000-0 00000-0 0 9991 2 25462 6.0952 73.5790 0024587 48.5110 147.8644 0.98660408 42369 ASTRA 1H 1 25785U 99033A 25137.34141972 .00000050 00000-0 00000-0 0 9995 2 25785 9.7792 51.8853 0008074 133.7745 62.5807 0.98941375 47175 AMC-4 (GE-4) 1 25954U 99060A 25137.60198729 .00000034 00000-0 00000-0 0 9996 2 25954 4.2337 78.5343 0000203 336.4053 120.0319 0.99130671 39492 ASTRA 2B 1 26494U 00054A 25137.48477574 -.00000167 00000-0 00000-0 0 9993 2 26494 8.6588 60.0156 0010585 154.5246 14.4974 0.98919275 42720 AMC-7 (GE-7) 1 26495U 00054B 25137.54431447 .00000005 00000-0 00000-0 0 9990 2 26495 5.9077 75.0089 0005235 94.7741 104.0224 0.99134689 90047 NSS 11 (AAP-1) 1 26554U 00059A 25137.34132485 .00000037 00000-0 00000-0 0 9994 2 26554 1.1018 86.1266 0003209 329.9442 118.0961 1.00271091 37323 AMC-6 (GE-6) 1 26580U 00067A 25137.59052245 .00000100 00000-0 00000-0 0 9995 2 26580 0.0996 81.1961 0003143 343.9793 247.8752 1.00272323 89925 ASTRA 2D 1 26638U 00081A 25137.32151613 .00000054 00000-0 00000-0 0 9993 2 26638 9.6070 52.5001 0001216 190.2754 184.6733 0.98998662 48832 AMC-8 (GE-8) 1 26639U 00081B 25137.58603267 -.00000126 00000-0 00000-0 0 9990 2 26639 5.1059 77.3861 0004839 253.5988 296.8244 0.99153498 89262 ASTRA 2C 1 26853U 01025A 25137.56642226 -.00000180 00000-0 00000-0 0 9993 2 26853 7.2086 68.5321 0005125 328.8945 216.8434 0.99041218 41036 ASTRA 3A 1 27400U 02015B 25137.08889546 -.00000223 00000-0 00000-0 0 9995 2 27400 9.6873 51.3780 0001262 298.6697 260.2787 0.99089837 84647 NSS 7 1 27414U 02019A 25136.84905969 .00000062 00000-0 00000-0 0 9995 2 27414 8.3802 61.6948 0002617 23.2043 171.3458 0.99078693 84535 NSS 6 1 27603U 02057A 25136.94072464 .00000098 00000-0 00000-0 0 9992 2 27603 4.3552 79.2720 0005204 262.6837 297.4733 0.99121915 81990 AMC-9 (GE-12) 1 27820U 03024A 25137.57753196 -.00000234 00000-0 00000-0 0 9999 2 27820 6.9299 70.1814 0018396 342.3959 194.8170 0.99035257 80074 AMC-10 (GE-10) 1 28154U 04003A 25137.56483434 -.00000248 00000-0 00000-0 0 9997 2 28154 5.6854 73.4596 0002679 36.7119 96.4105 0.99122610 77655 AMC-11 (GE-11) 1 28252U 04017A 25137.48794841 -.00000037 00000-0 00000-0 0 9995 2 28252 0.0480 67.7293 0003166 353.4422 238.8251 1.00271510 76904 AMC-15 1 28446U 04041A 25137.49350329 -.00000076 00000-0 00000-0 0 9990 2 28446 0.0523 72.2038 0002462 342.3882 253.4550 1.00272057 75349 AMC-16 1 28472U 04048A 25137.50947247 .00000037 00000-0 00000-0 0 9995 2 28472 3.5757 81.3666 0001938 258.7965 288.0568 0.99105873 74566 NSS 10 (AMC-12) 1 28526U 05003A 25137.27892267 -.00000239 00000-0 00000-0 0 9997 2 28526 5.4590 75.2364 0003238 336.6438 246.3130 1.00272196 49183 ASTRA 1KR 1 29055U 06012A 25137.31022169 .00000133 00000-0 00000-0 0 9999 2 29055 0.0538 288.7958 0000472 200.8559 236.5147 1.00276194 41742 AMC-18 1 29644U 06054B 25137.42336807 -.00000180 00000-0 00000-0 0 9991 2 29644 1.5738 91.0739 0005485 99.3010 150.0458 0.98859912 67472 ASTRA 1L 1 31306U 07016A 25137.37891905 .00000133 00000-0 00000-0 0 9994 2 31306 0.2999 79.7380 0003275 340.7982 330.6195 1.00273910 41014 ASTRA 4A (SIRIUS 4) 1 32299U 07057A 25137.40114240 .00000045 00000-0 00000-0 0 9997 2 32299 0.0147 347.4596 0002899 68.8142 328.2946 1.00271053 47671 AMC-21 1 33275U 08038B 25137.51086331 .00000048 00000-0 00000-0 0 9996 2 33275 1.9243 85.3552 0003180 332.0079 237.1139 1.00272882 61525 ASTRA 1M 1 33436U 08057A 25137.31022169 .00000132 00000-0 00000-0 0 9997 2 33436 0.0397 61.6234 0004303 34.3103 270.2126 1.00271925 41761 CIEL-2 1 33453U 08063A 25137.48239057 .00000050 00000-0 00000-0 0 9996 2 33453 1.7548 86.0614 0008103 305.2391 273.0318 0.99021214 60104 NSS 9 1 33749U 09008A 25137.54350154 .00000084 00000-0 00000-0 0 9990 2 33749 0.2386 83.3958 0002280 330.3382 200.4874 1.00271751 59550 SES 7 (PROTOSTAR 2) 1 34941U 09027A 25137.32794529 -.00000333 00000-0 00000-0 0 9998 2 34941 0.0619 83.9205 0000953 306.1054 71.5749 1.00271139 58664 NSS 12 1 36032U 09058A 25137.47475384 .00000083 00000-0 00000-0 0 9997 2 36032 0.0744 78.2765 0003876 322.1512 62.9082 1.00270247 56951 SES 1 1 36516U 10016A 25137.49906094 -.00000102 00000-0 00000-0 0 9992 2 36516 0.0167 314.9347 0002938 107.6842 251.4967 1.00271387 55067 ASTRA 3B 1 36581U 10021A 25137.56989300 .00000149 00000-0 00000-0 0 9999 2 36581 0.4460 89.1997 0004032 330.6846 44.2982 1.00273682 54907 SES 3 1 37748U 11035A 25137.56558899 -.00000090 00000-0 00000-0 0 9992 2 37748 0.3016 86.5740 0002751 323.4458 286.1046 1.00272067 50620 ASTRA 1N 1 37775U 11041A 25137.23887596 .00000132 00000-0 00000-0 0 9998 2 37775 0.0634 24.5157 0005970 27.4282 288.4486 1.00271069 40554 SES 2 1 37809U 11049A 25137.44558780 -.00000184 00000-0 00000-0 0 9995 2 37809 0.0261 33.2582 0003063 31.7113 243.8454 1.00272088 49998 QUETZSAT 1 1 37826U 11054A 25137.31919972 -.00000229 00000-0 00000-0 0 9990 2 37826 0.0154 357.8340 0003211 73.9523 201.3901 1.00270908 45905 SES 4 1 38087U 12007A 25137.41225248 -.00000156 00000-0 00000-0 0 9995 2 38087 0.0222 5.5549 0002453 61.9437 294.2773 1.00272060 48257 SES 5 1 38652U 12036A 25137.40072573 .00000046 00000-0 00000-0 0 9992 2 38652 0.0427 312.1387 0002260 107.1684 325.2897 1.00271214 40504 ASTRA 2F 1 38778U 12051A 25137.31204618 .00000162 00000-0 00000-0 0 9994 2 38778 0.0552 257.0467 0001063 264.7194 214.0589 1.00273152 37168 SES 6 1 39172U 13026A 25137.42336807 -.00000249 00000-0 00000-0 0 9991 2 39172 0.0192 336.4156 0002662 93.1836 277.6726 1.00269331 43751 O3B FM5 1 39188U 13031A 25133.09706840 -.00000018 00000-0 00000+0 0 9994 2 39188 0.0422 343.2737 0002842 73.3391 303.4171 5.00115392217128 O3B FM2 1 39190U 13031C 25137.44190486 -.00000014 00000-0 00000-0 0 9990 2 39190 0.0570 18.6078 0002759 39.6863 301.7351 5.00115802217310 O3B PFM 1 39191U 13031D 25136.86777779 -.00000015 00000-0 00000-0 0 9993 2 39191 0.0455 354.3150 0002701 59.7381 305.9744 5.00115251216846 ASTRA 2E 1 39285U 13056A 25137.56433491 .00000162 00000-0 00000-0 0 9994 2 39285 0.0646 24.0974 0002410 26.0863 57.0059 1.00272365 42450 SES 8 1 39460U 13071A 25137.32525199 -.00000258 00000-0 00000-0 0 9994 2 39460 0.0132 281.2305 0002886 148.7982 17.3422 1.00273420 40466 ASTRA 5B 1 39617U 14011B 25137.56989300 .00000149 00000-0 00000-0 0 9995 2 39617 0.0563 317.9331 0002333 91.5457 54.7015 1.00272831 40708 O3B FM3 1 40079U 14038A 25137.12259867 -.00000014 00000-0 00000-0 0 9990 2 40079 0.0498 5.4714 0004224 18.6155 335.9352 5.00115378193230 O3B FM7 1 40080U 14038B 25137.06871762 -.00000014 00000-0 00000-0 0 9999 2 40080 0.0481 12.8276 0003002 80.6361 266.5730 5.00115454198060 O3B FM6 1 40081U 14038C 25133.29787565 -.00000017 00000-0 00000-0 0 9991 2 40081 0.0500 8.0357 0002803 44.5993 307.3933 5.00115663197822 O3B FM8 1 40082U 14038D 25137.14923287 -.00000014 00000-0 00000-0 0 9990 2 40082 0.0496 8.9309 0002627 45.1513 305.9445 5.00115734198138 O3B FM10 1 40348U 14083A 25135.37680024 -.00000016 00000-0 00000-0 0 9999 2 40348 0.0529 12.2017 0001773 98.7480 249.0719 5.00114925189999 O3B FM11 1 40349U 14083B 25137.18887741 -.00000014 00000-0 00000-0 0 9994 2 40349 0.0455 358.2644 0003037 72.5265 289.2443 5.00115623190104 O3B FM12 1 40350U 14083C 25137.21611613 -.00000014 00000-0 00000-0 0 9993 2 40350 0.0460 359.2935 0002907 57.6340 303.1028 5.00115829190113 O3B FM9 1 40351U 14083D 25137.04298791 -.00000014 00000-0 00000-0 0 9993 2 40351 0.0442 358.3263 0002694 52.8619 308.8382 5.00115638190255 ASTRA 2G 1 40364U 14089A 25137.56433491 .00000162 00000-0 00000-0 0 9991 2 40364 0.0655 42.6396 0005053 14.5816 49.6586 1.00274049 38009 SES 9 1 41380U 16013A 25136.82812684 -.00000332 00000-0 00000-0 0 9992 2 41380 0.0104 321.5192 0002442 113.9854 205.7101 1.00269046 33469 SES 10 1 42432U 17017A 25137.43447517 -.00000260 00000-0 00000-0 0 9993 2 42432 0.0158 0.8189 0002650 66.8398 257.2399 1.00269389 29770 SES 15 1 42709U 17026A 25137.61475722 .00000072 00000-0 00000-0 0 9999 2 42709 0.0304 30.7869 0000542 20.7562 276.1735 1.00270097 3478